Regional Weather Roundup
Issued by NWS

Home | Current Version | Previous Version | Graphics & Text | Print | Product List | Glossary On
Versions: 1 2 3 4 5 6 7 8 9 10 11 12 13 14 15 16 17 18 19 20 21 22 23 24 25 26 27 28 29 30 31 32 33 34 35 36 37 38 39 40 41 42 43 44 45 46 47 48 49 50
425
ASUS43 KOAX 252203
RWRNE

WEATHER ROUNDUP FOR NEBRASKA
NATIONAL WEATHER SERVICE OMAHA NE
500 PM CDT FRI MAY 25 2018

NOTES: SATELLITE DATA IS BEING USED TO AUGMENT CLOUD COVER ABOVE
       12000 FEET.
       "FAIR" INDICATES FEW OR NO CLOUDS BELOW 12,000 FEET WITH NO
       SIGNIFICANT WEATHER AND/OR OBSTRUCTIONS TO VISIBILITY.


NEZ001>004-019>022-054>056-252300-
NEBRASKA PANHANDLE

CITY           SKY/WX    TMP DP  RH WIND       PRES   REMARKS
SCOTTSBLUFF    SUNNY     88  47  24 CALM      29.94F
ALLIANCE       SUNNY     86  50  28 W10G17    29.93F
CHADRON        SUNNY     86  52  30 NW10      29.91S
GORDON         FAIR      86  49  27 NW9G16    29.92S
KIMBALL        SUNNY     85  35  17 CALM      30.01F
SIDNEY         SUNNY     88  38  17 NW8       29.98F
$$

NEZ057>060-069>072-079>082-252300-
SOUTHWEST NEBRASKA

CITY           SKY/WX    TMP DP  RH WIND       PRES   REMARKS
NORTH PLATTE   SUNNY     90  61  37 NW12      29.86F HX  90
IMPERIAL       SUNNY     93  36  13 CALM      29.90F
LEXINGTON      MOSUNNY   91  52  26 W14       29.83F
MCCOOK         MOSUNNY   88  57  34 S5        29.85F
OGALLALA       MOSUNNY   90  54  30 NW7       29.90F
$$

NEZ005>010-023>029-035>040-094-252300-
NORTH CENTRAL NEBRASKA

CITY           SKY/WX    TMP DP  RH WIND       PRES   REMARKS
VALENTINE      SUNNY     89  55  31 NW7G17    29.84F
AINSWORTH      MOSUNNY   87  56  34 NW8       29.84F
BROKEN BOW     MOSUNNY   92  53  26 N9        29.83F
O`NEILL        SUNNY     91  59  33 SW9       29.80F HX  90
ORD            SUNNY     92  55  28 W10       29.79F HX  90
THEDFORD       SUNNY     91  50  24 W12G18    29.87S
$$

NEZ041-046>049-061>064-073>077-083>087-252300-
SOUTH CENTRAL NEBRASKA

CITY           SKY/WX    TMP DP  RH WIND       PRES   REMARKS
GRAND ISLAND   SUNNY     92  55  28 CALM      29.79F HX  90
AURORA         SUNNY     93  49  22 NW7       29.79F HX  90
HASTINGS       MOSUNNY   93  58  30 SW7       29.81F HX  92
HEBRON         SUNNY     95  54  25 SW8       29.79F HX  93
HOLDREGE       PTSUNNY   93  55  27 W15       29.83F HX  91
KEARNEY        SUNNY     94  54  25 W8        29.82F HX  92
YORK           SUNNY     93  54  26 SW9       29.78F HX  91
$$

NEZ011>018-030>034-042>045-252300-
NORTHEAST NEBRASKA

CITY           SKY/WX    TMP DP  RH WIND       PRES   REMARKS
NORFOLK        SUNNY     94  53  25 NW10      29.73F HX  91
ALBION         CLOUDY    79  61  54 N6G25     29.80R
BLAIR          MOSUNNY   81  66  60 N12       29.76F
COLUMBUS       SUNNY     96  58  27 SW13      29.75F HX  95
FREMONT        PTSUNNY   90  61  37 E14G22    29.75S HX  90
TEKAMAH        CLOUDY    88  63  43 S16       29.73F
WAYNE          MOSUNNY   89  62  39 SW3       29.74F
$$

NEZ050>053-065>068-078-088>093-252300-
SOUTHEAST NEBRASKA

CITY           SKY/WX    TMP DP  RH WIND       PRES   REMARKS
LINCOLN        SUNNY     96  53  23 W8G24     29.75F HX  93
OMAHA EPPLEY   PTSUNNY   91  62  37 N6        29.74S HX  91
BEATRICE       SUNNY     94  60  31 SW12      29.78F HX  93
FALLS CITY     SUNNY     92  57  30 SW9       29.76F HX  90
NEBRASKA CITY  SUNNY     92  59  33 CALM      29.77F HX  92
PLATTSMOUTH    PTSUNNY   94  55  27 SW12      29.76S HX  92
$$

NEZ044-045-051>053-067-252300-
OMAHA AREA

CITY           SKY/WX    TMP DP  RH WIND       PRES   REMARKS
OMAHA EPPLEY   PTSUNNY   91  62  37 N6        29.74S HX  91
BLAIR          MOSUNNY   81  66  60 N12       29.76F
FREMONT        PTSUNNY   90  61  37 E14G22    29.75S HX  90
MILLARD        MOSUNNY   94  59  30 S7        29.74F HX  93
OFFUTT AFB     MOSUNNY   94  58  29 W5        29.74S HX  93
PLATTSMOUTH    PTSUNNY   94  55  27 SW12      29.76S HX  92
WAHOO          FAIR     100  38  12 W15G21    29.74S HX  94
$$




USA.gov is the U.S. government's official web portal to all federal, state and local government web resources and services.